Temp
-22 -22 -20 -21 -20 -20 -20 -19 -17 -18 -18 -17 -18 -18 -17 -16 -16 -16 -15 -14 -14 -14 -13 -14 -13 -15 -14 -14 -13 -15 -15 -14 -14 -14 -14 -14 -15 -15 -15 -15 -15 -15 -15
-22 -22 -21 -20 -20 -19 -20 -18 -18 -18 -18 -17 -17 -17 -16 -16 -15 -15 -14 -14 -14 -13 -13 -13 -14 -15 -14 -14 -15 -15 -14 -14 -14 -14 -15 -15 -15 -15 -15 -15 -16 -16 -16
-22 -22 -20 -21 -20 -19 -19 -18 -19 -18 -18 -17 -17 -17 -16 -16 -15 -15 -15 -14 -14 -14 -14 -14 -15 -14 -14 -15 -15 -15 -15 -14 -15 -15 -15 -15 -15 -15 -15 -16 -16 -16 -16
-22 -22 -21 -21 -20 -19 -19 -18 -19 -18 -18 -17 -17 -17 -16 -16 -15 -15 -14 -14 -14 -14 -14 -14 -14 -15 -15 -15 -15 -15 -15 -15 -15 -15 -15 -15 -16 -16 -16 -16 -16 -16 -17
-22 -22 -21 -21 -20 -19 -19 -19 -19 -18 -18 -17 -16 -16 -16 -16 -15 -15 -14 -14 -14 -15 -15 -15 -15 -15 -15 -15 -15 -15 -15 -15 -15 -15 -16 -16 -16 -16 -16 -17 -17 -17 -17
-22 -22 -21 -20 -20 -19 -19 -19 -19 -18 -17 -17 -16 -15 -16 -16 -15 -14 -14 -14 -15 -15 -15 -15 -15 -15 -15 -15 -15 -15 -15 -15 -15 -16 -16 -16 -16 -17 -17 -17 -18 -18 -18
-22 -21 -21 -20 -20 -19 -19 -19 -18 -18 -17 -17 -16 -16 -16 -15 -14 -14 -14 -14 -15 -15 -15 -15 -15 -15 -15 -16 -15 -15 -15 -15 -16 -16 -17 -17 -17 -17 -18 -18 -18 -18 -18
-22 -22 -21 -20 -20 -20 -19 -19 -18 -18 -17 -17 -17 -15 -15 -15 -14 -14 -14 -15 -15 -15 -15 -15 -15 -15 -15 -15 -15 -16 -16 -16 -16 -17 -17 -17 -18 -18 -18 -18 -19 -18 -18
-22 -22 -21 -20 -20 -20 -19 -19 -18 -18 -17 -17 -16 -15 -15 -15 -15 -15 -15 -15 -16 -15 -15 -15 -15 -15 -15 -15 -16 -16 -16 -16 -17 -17 -17 -18 -18 -19 -19 -19 -19 -19 -18
-22 -22 -21 -20 -20 -19 -19 -19 -18 -18 -17 -16 -15 -15 -15 -15 -15 -15 -15 -15 -15 -15 -15 -15 -15 -16 -16 -15 -16 -16 -16 -16 -17 -18 -18 -19 -19 -19 -19 -19 -19 -19 -19
-22 -21 -21 -20 -19 -19 -18 -18 -18 -18 -16 -15 -15 -15 -15 -15 -15 -15 -15 -15 -15 -16 -15 -15 -16 -16 -16 -16 -16 -16 -17 -17 -17 -18 -19 -19 -19 -19 -19 -19 -19 -20 -21
-22 -21 -20 -20 -19 -18 -17 -17 -16 -16 -15 -15 -15 -15 -15 -15 -15 -15 -15 -15 -15 -15 -16 -16 -16 -16 -16 -16 -16 -17 -17 -18 -18 -19 -20 -20 -20 -20 -20 -20 -20 -21 -22
-22 -21 -20 -21 -19 -18 -17 -16 -16 -16 -15 -15 -15 -15 -15 -15 -15 -15 -15 -15 -15 -15 -16 -16 -16 -16 -16 -16 -17 -17 -18 -18 -19 -20 -20 -20 -20 -20 -20 -20 -21 -22 -23
-22 -21 -21 -19 -19 -18 -17 -17 -16 -16 -15 -16 -15 -15 -15 -16 -15 -15 -15 -15 -16 -16 -16 -16 -16 -16 -16 -17 -17 -18 -18 -19 -20 -20 -20 -20 -20 -20 -21 -21 -21 -23 -24
-21 -20 -20 -19 -18 -18 -17 -17 -16 -16 -16 -15 -15 -15 -15 -16 -15 -16 -16 -16 -16 -16 -16 -16 -16 -16 -17 -18 -18 -18 -19 -20 -20 -20 -20 -20 -21 -21 -21 -21 -22 -24 -24
-20 -20 -19 -19 -18 -17 -17 -16 -16 -16 -16 -16 -15 -15 -15 -15 -15 -15 -15 -16 -16 -16 -16 -16 -16 -16 -18 -18 -18 -19 -19 -20 -20 -20 -21 -21 -21 -21 -21 -21 -22 -24 -25
-19 -20 -19 -18 -18 -17 -17 -16 -16 -17 -17 -17 -16 -16 -16 -16 -16 -16 -16 -16 -16 -16 -16 -16 -16 -17 -18 -18 -19 -19 -20 -20 -20 -21 -21 -21 -21 -21 -21 -22 -22 -24 -24
-19 -19 -18 -18 -18 -17 -17 -17 -16 -16 -16 -16 -16 -16 -16 -16 -16 -16 -16 -16 -16 -16 -16 -16 -17 -18 -18 -18 -19 -19 -19 -20 -20 -20 -21 -21 -21 -21 -21 -22 -22 -23 -24
-20 -19 -18 -18 -18 -17 -17 -17 -17 -17 -17 -16 -16 -15 -16 -16 -16 -16 -16 -16 -16 -16 -16 -16 -17 -18 -18 -18 -19 -19 -19 -19 -20 -20 -20 -21 -21 -21 -22 -22 -22 -22 -23
-19 -18 -18 -18 -18 -17 -17 -17 -17 -17 -16 -17 -16 -16 -16 -16 -16 -16 -16 -16 -16 -16 -16 -17 -17 -18 -18 -18 -19 -19 -19 -19 -19 -19 -20 -20 -21 -21 -21 -22 -22 -22 -23
-19 -18 -18 -18 -18 -17 -17 -17 -17 -17 -17 -17 -17 -17 -16 -16 -16 -16 -16 -16 -15 -16 -17 -17 -17 -18 -18 -18 -18 -18 -18 -18 -19 -19 -19 -20 -20 -20 -21 -21 -22 -22 -22
-19 -18 -18 -18 -18 -17 -17 -17 -17 -17 -18 -17 -17 -17 -16 -16 -16 -16 -16 -16 -16 -16 -17 -17 -17 -18 -18 -17 -18 -18 -18 -18 -19 -19 -19 -19 -20 -20 -20 -21 -21 -21 -22
-18 -18 -18 -18 -18 -17 -17 -17 -18 -17 -17 -17 -17 -17 -16 -16 -16 -16 -16 -16 -16 -16 -17 -17 -17 -18 -17 -17 -18 -18 -18 -18 -18 -19 -19 -19 -20 -20 -20 -20 -21 -21 -21
-18 -18 -18 -18 -18 -18 -18 -17 -18 -18 -17 -17 -17 -17 -17 -16 -16 -16 -16 -16 -16 -17 -17 -17 -17 -17 -17 -17 -17 -18 -18 -18 -18 -18 -19 -19 -19 -20 -20 -20 -21 -21 -21
-18 -18 -18 -18 -18 -18 -18 -18 -17 -17 -17 -17 -17 -17 -17 -16 -16 -16 -16 -16 -16 -17 -17 -17 -17 -17 -17 -17 -17 -17 -18 -18 -18 -18 -18 -19 -19 -19 -19 -20 -20 -20 -21
-18 -18 -18 -18 -18 -18 -18 -17 -17 -17 -17 -17 -17 -17 -17 -17 -16 -16 -16 -16 -16 -17 -17 -17 -17 -17 -17 -17 -17 -17 -17 -17 -18 -18 -18 -18 -18 -19 -19 -19 -19 -20 -20
Height
5559 5560 5563 5568 5573 5576 5584 5591 5596 5600 5604 5608 5611 5617 5625 5632 5636 5640 5646 5650 5653 5658 5663 5670 5674 5679 5683 5686 5687 5689 5689 5690 5689 5688 5687 5690 5688 5686 5685 5682 5679 5676 5674
5552 5554 5555 5560 5567 5573 5579 5585 5588 5595 5599 5602 5605 5612 5620 5626 5631 5636 5639 5643 5646 5652 5659 5664 5671 5675 5679 5681 5683 5684 5685 5685 5684 5683 5684 5685 5684 5682 5680 5677 5673 5670 5666
5547 5548 5549 5555 5561 5567 5574 5578 5582 5589 5594 5599 5603 5609 5616 5621 5626 5629 5632 5635 5641 5649 5656 5662 5667 5671 5675 5677 5680 5680 5681 5681 5681 5681 5682 5682 5680 5678 5675 5671 5666 5662 5657
5540 5542 5545 5551 5556 5563 5569 5573 5578 5585 5590 5597 5601 5607 5612 5617 5621 5623 5626 5634 5640 5648 5655 5661 5664 5669 5672 5673 5675 5676 5678 5679 5679 5680 5680 5678 5676 5672 5669 5664 5659 5653 5648
5534 5538 5542 5547 5553 5558 5564 5569 5574 5580 5586 5592 5597 5604 5608 5613 5617 5621 5627 5634 5642 5649 5655 5660 5662 5666 5669 5671 5673 5675 5677 5678 5678 5678 5675 5672 5669 5665 5661 5655 5649 5644 5637
5528 5532 5538 5543 5549 5553 5558 5565 5570 5577 5582 5588 5594 5600 5604 5607 5613 5622 5629 5636 5642 5648 5653 5657 5661 5662 5665 5669 5672 5675 5677 5677 5677 5675 5671 5669 5664 5658 5652 5646 5640 5633 5627
5522 5526 5533 5539 5544 5548 5553 5559 5566 5571 5577 5584 5591 5596 5599 5604 5610 5621 5628 5635 5641 5648 5651 5655 5659 5660 5665 5668 5673 5675 5676 5676 5674 5669 5666 5664 5658 5652 5646 5638 5630 5623 5614
5515 5522 5528 5534 5539 5544 5548 5553 5560 5566 5574 5582 5586 5594 5596 5604 5613 5622 5630 5636 5641 5646 5651 5654 5657 5662 5665 5668 5673 5674 5673 5672 5668 5664 5662 5658 5652 5645 5637 5630 5622 5613 5602
5511 5517 5523 5530 5536 5541 5546 5551 5557 5565 5572 5577 5588 5596 5601 5608 5618 5624 5631 5637 5641 5647 5652 5654 5659 5663 5667 5671 5672 5672 5672 5669 5665 5662 5658 5652 5645 5638 5630 5622 5613 5602 5591
5507 5512 5520 5527 5533 5539 5545 5551 5556 5561 5564 5581 5587 5596 5602 5612 5619 5626 5631 5637 5643 5648 5651 5657 5661 5666 5668 5671 5671 5671 5670 5666 5662 5659 5653 5646 5639 5632 5624 5615 5604 5592 5580
5503 5510 5518 5526 5531 5536 5544 5549 5554 5559 5566 5577 5588 5596 5605 5614 5621 5627 5633 5638 5643 5649 5653 5659 5664 5667 5669 5669 5670 5670 5667 5663 5660 5654 5647 5641 5635 5628 5618 5607 5596 5583 5568
5500 5509 5518 5525 5530 5536 5544 5548 5555 5561 5570 5579 5591 5599 5607 5615 5622 5629 5635 5640 5645 5650 5656 5661 5665 5667 5668 5670 5670 5667 5665 5661 5656 5650 5643 5638 5631 5622 5612 5601 5588 5574 5561
5499 5508 5517 5523 5529 5537 5543 5547 5555 5564 5574 5586 5595 5603 5611 5617 5624 5631 5637 5641 5648 5655 5659 5664 5667 5668 5670 5669 5669 5666 5663 5658 5654 5647 5642 5636 5628 5619 5609 5598 5584 5570 5556
5500 5511 5519 5524 5532 5539 5545 5552 5559 5570 5579 5590 5599 5607 5614 5621 5628 5634 5639 5646 5653 5658 5663 5666 5668 5670 5671 5669 5669 5665 5661 5656 5650 5646 5640 5633 5626 5618 5608 5596 5582 5567 5552
5505 5513 5521 5530 5537 5541 5548 5554 5563 5573 5585 5595 5602 5610 5617 5623 5629 5635 5642 5650 5656 5661 5665 5668 5670 5671 5671 5671 5668 5663 5659 5654 5650 5646 5639 5633 5627 5619 5609 5597 5583 5567 5553
5509 5517 5526 5533 5540 5546 5552 5558 5567 5579 5588 5596 5603 5612 5617 5625 5634 5641 5647 5653 5660 5664 5668 5670 5670 5672 5673 5670 5666 5662 5659 5655 5651 5646 5641 5635 5629 5621 5612 5600 5587 5572 5557
5514 5523 5531 5536 5542 5549 5555 5564 5574 5581 5591 5599 5606 5614 5622 5631 5638 5646 5653 5658 5664 5668 5672 5671 5673 5674 5673 5669 5666 5663 5660 5656 5652 5648 5644 5639 5632 5625 5617 5606 5594 5580 5566
5521 5528 5535 5542 5550 5556 5562 5572 5580 5589 5596 5603 5609 5618 5624 5633 5642 5649 5655 5663 5667 5671 5674 5674 5675 5674 5672 5669 5667 5665 5662 5658 5655 5652 5648 5643 5637 5630 5622 5613 5602 5591 5579
5527 5534 5540 5547 5556 5563 5570 5578 5587 5594 5603 5610 5615 5621 5629 5638 5646 5654 5660 5665 5669 5674 5675 5676 5675 5675 5673 5672 5669 5667 5665 5662 5659 5657 5653 5648 5643 5637 5629 5621 5612 5602 5592
5533 5540 5547 5556 5562 5569 5577 5585 5593 5601 5608 5615 5623 5630 5638 5645 5653 5660 5665 5671 5673 5675 5678 5677 5677 5677 5676 5674 5672 5670 5669 5667 5665 5662 5659 5654 5649 5643 5636 5629 5621 5613 5604
5542 5548 5555 5562 5569 5576 5583 5590 5598 5605 5612 5619 5626 5633 5642 5650 5658 5664 5670 5674 5675 5677 5679 5680 5680 5680 5679 5677 5677 5676 5675 5674 5672 5668 5665 5661 5656 5650 5644 5637 5630 5623 5616
5548 5555 5562 5569 5575 5582 5587 5595 5601 5608 5617 5625 5633 5640 5648 5655 5662 5668 5673 5676 5679 5680 5682 5683 5683 5684 5682 5683 5683 5682 5681 5680 5678 5675 5672 5668 5663 5658 5652 5647 5640 5634 5627
5554 5561 5567 5574 5580 5586 5592 5599 5607 5615 5623 5630 5639 5647 5655 5661 5667 5671 5675 5679 5682 5683 5685 5686 5687 5687 5688 5689 5689 5689 5688 5686 5684 5682 5679 5675 5671 5666 5661 5656 5650 5644 5638
5560 5568 5574 5580 5586 5591 5598 5605 5613 5620 5627 5636 5643 5651 5659 5666 5671 5675 5679 5683 5685 5687 5688 5689 5691 5691 5693 5694 5695 5695 5694 5693 5692 5689 5686 5683 5679 5675 5670 5665 5660 5655 5649
5567 5574 5579 5585 5592 5598 5604 5610 5618 5625 5632 5640 5648 5655 5663 5670 5675 5679 5683 5686 5687 5689 5691 5693 5695 5696 5699 5700 5701 5701 5700 5700 5698 5696 5694 5690 5687 5683 5679 5675 5670 5665 5660
5572 5579 5585 5591 5597 5603 5609 5616 5622 5629 5637 5644 5651 5659 5666 5672 5678 5682 5686 5688 5690 5692 5694 5696 5699 5701 5704 5705 5706 5706 5706 5706 5705 5703 5701 5698 5696 5692 5688 5684 5680 5675 5671
Wind_Speed
21 20 27 26 23 24 24 27 29 25 17 21 20 19 15 18 21 24 30 38 36 36 42 39 30 24 24 20 19 17 17 20 19 17 18 21 19 16 14 16 20 23 27
20 21 26 26 23 19 20 26 24 20 18 17 18 17 15 15 16 26 32 36 33 36 38 37 26 23 20 19 19 17 16 17 14 14 14 15 12 13 16 21 24 28 31
14 18 19 25 22 19 18 23 21 21 19 18 15 16 15 11 16 22 26 19 37 39 34 27 22 19 19 15 14 16 14 13 11 10 9 10 13 16 20 24 29 32 36
17 15 19 19 23 19 16 21 21 22 17 13 16 15 15 17 19 24 26 38 37 32 24 21 19 17 15 14 15 13 11 10 8 8 8 12 17 20 25 28 32 35 38
21 20 19 22 24 22 20 20 21 20 16 16 14 14 16 21 18 16 37 37 31 24 20 19 17 15 13 13 12 9 9 8 7 9 11 16 20 24 28 32 35 38 40
23 24 24 24 23 22 21 26 25 24 20 19 19 23 23 29 26 26 35 33 25 20 21 18 16 13 12 11 9 9 8 6 8 11 15 20 24 27 31 34 37 39 42
26 29 28 24 21 21 29 28 32 27 22 23 25 24 26 18 28 39 40 32 22 20 18 17 14 12 14 11 10 8 4 7 9 12 16 22 27 30 33 35 38 41 45
31 31 32 25 19 20 32 34 31 28 27 24 28 16 21 32 40 39 34 25 22 22 18 15 14 15 14 14 10 4 4 8 10 15 19 24 28 32 34 36 39 43 48
25 32 33 28 18 18 26 30 28 27 29 30 23 32 38 39 31 23 18 21 24 19 17 15 16 16 15 12 6 3 7 10 14 17 21 26 29 32 33 36 40 45 48
24 31 32 26 18 19 18 25 27 30 34 30 24 33 32 33 25 18 26 27 21 19 18 18 19 17 14 7 2 4 9 14 15 19 23 26 29 31 34 38 42 46 48
25 28 28 28 28 19 11 29 30 37 32 23 35 33 33 33 23 24 25 23 21 20 21 22 20 15 9 3 2 7 11 14 18 21 24 26 29 31 35 39 43 47 46
28 29 31 27 32 14 20 28 28 27 26 29 40 44 36 29 26 25 21 21 23 24 24 21 17 12 6 0 5 9 13 16 19 22 24 26 29 32 35 41 46 48 43
31 34 32 31 20 21 19 27 34 34 32 38 36 35 28 27 29 24 22 23 24 25 23 19 14 8 3 4 8 11 14 17 19 22 23 26 29 32 36 42 47 48 42
32 37 34 33 17 21 27 26 27 36 38 34 35 33 28 30 23 23 24 24 27 24 21 16 10 5 3 6 9 11 15 18 21 22 24 27 30 33 37 44 49 49 43
36 37 32 28 24 30 26 29 31 33 33 32 32 28 29 30 27 29 31 29 27 23 19 13 8 4 5 7 10 13 16 20 21 23 26 29 31 34 39 45 50 51 43
44 43 33 29 22 29 31 34 45 38 39 34 33 34 36 30 26 29 31 29 25 20 15 12 7 4 6 9 13 16 19 20 22 25 28 29 32 36 41 47 50 52 43
41 35 29 24 30 31 39 49 54 44 44 37 37 35 30 28 31 31 30 26 23 19 14 10 5 6 9 14 17 18 19 22 24 26 27 30 34 37 41 46 50 53 49
40 35 38 32 33 34 40 46 43 42 35 29 39 33 34 36 36 34 30 25 21 16 10 8 8 12 15 17 19 20 22 24 25 27 29 31 34 37 40 45 50 52 55
38 36 32 27 33 38 39 34 37 34 32 23 37 34 37 38 37 32 29 27 23 17 10 10 14 17 18 19 21 23 25 26 28 28 30 32 35 37 40 43 47 51 52
33 29 28 32 33 34 34 31 36 31 25 32 32 36 36 38 33 30 27 24 21 17 12 15 17 19 20 23 25 27 28 29 29 30 32 33 35 37 40 42 45 48 50
31 33 30 29 34 32 33 32 29 26 34 36 38 41 40 37 32 29 27 21 20 17 17 18 20 20 23 27 29 30 30 30 31 32 32 33 35 37 39 41 43 46 48
33 38 36 28 30 31 29 32 33 40 38 37 39 41 39 35 32 30 25 20 18 19 19 20 22 23 28 30 31 31 31 31 31 31 32 34 35 37 38 40 42 44 46
42 38 33 25 27 30 34 36 38 39 39 40 42 41 35 33 31 30 25 20 19 20 21 22 23 27 30 30 31 31 30 30 31 32 32 34 35 36 37 39 41 43 44
37 34 31 30 31 33 36 42 41 38 40 44 44 42 36 31 30 28 25 21 21 21 23 23 25 29 29 29 30 30 30 30 30 32 33 34 35 36 37 38 39 42 43
37 31 30 36 40 35 37 36 38 37 42 45 45 40 36 30 29 27 24 22 22 23 24 23 26 29 27 27 27 28 28 29 31 32 33 34 35 36 37 39 40 41 43
30 31 34 34 42 33 37 38 35 37 46 46 45 40 36 32 29 27 24 23 23 23 24 24 27 28 26 25 26 27 27 27 28 29 31 32 34 35 38 39 41 42 44
Wind_Direction
264 255 233 227 223 210 208 207 232 239 216 224 210 210 218 230 240 248 253 254 262 254 203 210 218 218 227 239 254 249 266 270 274 272 273 273 276 282 282 289 297 304 304
259 252 247 193 198 207 216 213 229 218 204 219 193 193 202 223 249 253 253 243 244 210 216 209 209 214 231 235 232 256 264 262 261 265 268 272 277 286 294 301 305 303 305
245 247 220 198 205 208 206 210 217 197 193 194 188 191 192 209 234 241 237 220 182 192 199 196 204 215 221 226 243 253 250 251 257 259 255 269 283 296 304 303 306 305 305
226 235 198 212 206 202 204 209 210 198 185 196 205 200 207 213 224 242 188 176 182 192 197 199 199 208 216 234 241 233 242 252 238 242 266 288 298 302 305 307 307 307 306
215 219 203 203 198 204 210 212 211 185 187 200 208 208 211 217 228 212 169 176 187 190 192 194 200 207 226 235 224 219 226 220 240 269 289 302 305 308 309 311 312 311 310
220 207 198 200 192 201 209 200 197 199 199 208 210 206 213 213 199 173 179 185 185 193 191 196 201 210 218 212 201 195 200 233 277 296 313 311 310 313 316 316 315 313 310
212 202 186 190 191 198 193 191 184 189 199 205 209 213 223 221 178 173 183 189 189 192 193 185 196 200 192 177 182 186 214 275 295 316 318 313 315 317 319 319 318 316 315
201 196 189 186 189 198 196 188 188 190 198 201 199 214 189 180 169 178 184 181 185 182 179 185 186 180 166 166 172 191 273 297 315 322 318 317 321 322 322 322 321 320 320
196 189 191 189 186 196 197 194 194 197 200 182 204 169 162 163 160 158 160 176 170 176 184 178 171 164 159 158 168 275 304 317 325 322 322 324 326 327 327 326 326 326 325
197 192 191 185 178 176 191 198 207 207 190 197 186 176 167 159 152 159 162 164 169 176 164 160 158 155 149 156 204 315 321 325 325 327 328 332 333 332 331 331 332 332 334
195 191 178 174 182 187 199 205 207 200 166 161 152 168 166 179 180 164 165 169 167 159 156 156 149 146 143 150 323 326 330 329 332 333 338 339 337 335 337 340 342 344 343
187 180 175 175 166 164 184 185 182 149 153 170 164 161 171 176 167 165 168 162 157 154 154 146 144 142 132 359 337 336 335 338 341 345 346 342 343 343 347 351 353 353 350
179 178 175 187 162 172 146 156 146 152 180 158 160 169 168 166 162 162 162 153 153 153 144 143 143 133 118 360 338 343 346 351 352 355 352 352 352 353 356 360 0 359 356
172 161 175 167 138 162 147 138 148 153 148 151 153 166 156 157 157 157 150 149 148 146 143 142 133 119 33 356 346 1 3 2 3 2 2 3 4 3 6 7 6 4 5
158 163 159 157 151 154 144 138 142 163 170 165 162 164 167 157 159 156 148 151 148 145 139 128 129 84 2 11 16 17 15 14 10 12 13 14 12 12 14 14 14 12 14
155 159 151 142 139 144 160 150 147 145 156 157 169 168 161 154 157 153 148 147 142 140 134 132 103 45 33 39 36 29 23 20 20 22 21 19 19 20 21 22 22 20 24
156 161 162 144 125 137 142 149 154 146 143 155 157 150 148 149 149 148 145 140 138 137 135 111 85 64 59 56 42 35 32 29 31 29 26 24 23 26 28 29 30 30 33
150 154 141 123 136 141 144 147 147 152 156 156 149 153 151 148 149 147 142 141 137 130 122 101 83 76 68 56 46 45 42 42 39 36 32 30 30 32 34 36 37 39 41
162 138 127 126 144 138 143 147 156 161 161 157 156 152 150 148 148 145 142 142 134 132 116 91 82 79 68 57 57 57 56 52 48 44 42 39 38 37 40 41 42 44 46
142 132 138 144 142 142 146 150 153 153 155 155 147 144 147 145 143 143 142 139 130 119 103 90 86 81 69 68 71 69 66 62 58 53 50 47 45 44 44 44 47 48 51
137 141 138 136 142 144 146 147 150 160 147 147 150 148 148 145 144 145 143 140 121 110 100 93 92 82 78 83 82 78 72 66 63 59 56 54 51 50 49 49 49 51 52
142 140 135 138 144 146 150 156 158 150 149 154 150 148 148 145 146 145 139 130 117 106 101 100 95 88 90 91 85 78 74 69 67 63 60 57 55 55 53 53 53 53 54
141 141 139 145 147 154 154 156 151 150 151 152 149 148 147 148 149 143 136 130 118 110 107 102 97 99 101 93 87 81 77 72 68 65 63 61 58 57 57 57 57 57 56
139 144 150 146 149 151 156 154 152 155 158 152 150 149 149 152 151 143 135 130 119 115 110 106 106 108 106 96 90 83 79 75 71 66 63 62 61 60 59 59 59 59 59
145 150 150 151 152 154 156 152 154 159 157 154 151 150 151 153 153 144 138 130 124 119 115 111 115 115 108 100 93 89 84 79 74 70 66 64 63 63 63 62 61 61 61
146 153 154 152 152 157 152 148 153 159 156 155 153 154 154 154 153 148 140 131 126 122 120 119 121 120 111 104 100 95 91 84 78 73 69 66 65 65 64 64 65 64 64